This demonstration page uses our WeatherBlox Daily Observations layout. Learn more.

Left ArrowRight Arrow

39.51506, -84.39828

Hourly Observations for April 16, 2017

Temp ( °F °C ) Dew Point ( °F °C ) Humidity (%) Winds ( mph kmh ) Pressure ( in mb ) Visibility ( mi km ) Precip ( " mm )
12:15 am 00:15 Clear 61 15.9 50 10.2 69 69 Calm 30.03 1017 10 16 0.00 0.00
12:35 am 00:35 Clear 61 16 52 11.2 73 73 Calm 30.00 1016 10 16 0.00 0.00
12:55 am 00:55 Partly Cloudy 60 15.6 52 11.1 75 75 Calm 30.00 1016 10 16 0.00 0.00
1:15 am 01:15 Partly Cloudy 60 15.3 53 11.5 78 78 Calm 30.03 1017 10 16 0.00 0.00
1:35 am 01:35 Partly Cloudy 60 15.3 53 11.5 78 78 Calm 30.03 1017 10 16 0.00 0.00
1:55 am 01:55 Partly Cloudy 60 15.3 52 11.2 77 77 Calm 30.03 1017 10 16 0.00 0.00
2:15 am 02:15 Mostly Cloudy 60 15.3 52 11.2 77 77 Calm 30.03 1017 10 16 0.00 0.00
2:35 am 02:35 Mostly Cloudy 60 15.3 52 11.2 77 77 Calm 30.03 1017 10 16 0.00 0.00
2:55 am 02:55 Mostly Cloudy 60 15.3 52 11.3 77 77 Calm 30.03 1017 10 16 0.00 0.00
3:15 am 03:15 Mostly Cloudy 60 15.7 52 11.1 74 74 SSW 6 9 30.00 1016 10 16 0.00 0.00
3:35 am 03:35 Mostly Cloudy 63 17 51 10.8 67 67 SSW 8 13 30.00 1016 10 16 0.00 0.00
3:55 am 03:55 Mostly Cloudy 64 18 52 10.9 63 63 SSW 8 13 30.00 1016 10 16 0.00 0.00
4:15 am 04:15 Mostly Cloudy 68 20.1 53 11.7 59 59 SSW 9 15 30.00 1016 10 16 0.00 0.00
4:35 am 04:35 Mostly Cloudy 69 20.8 54 12 57 57 SSW 9 15 30.00 1016 10 16 0.00 0.00
4:55 am 04:55 Partly Cloudy 68 19.8 52 11 57 57 SSW 9 15 30.00 1016 10 16 0.00 0.00
5:15 am 05:15 Partly Cloudy 69 20.8 52 11.2 54 54 SSW 9 15 30.00 1016 10 16 0.00 0.00
5:35 am 05:35 Partly Cloudy 69 20.8 52 11.3 55 55 SSW 9 15 30.00 1016 10 16 0.00 0.00
5:55 am 05:55 Mostly Cloudy 69 20.8 50 10.1 51 51 SSW 12 19 30.00 1016 10 16 0.00 0.00
6:15 am 06:15 Mostly Cloudy 69 20.8 51 10.7 53 53 S 13 20 29.97 1015 10 16 0.00 0.00
6:35 am 06:35 Clear 69 20.8 53 11.7 56 56 SSW 12 19 29.97 1015 10 16 0.00 0.00
6:55 am 06:55 Partly Cloudy 69 20.8 54 12.3 58 58 SSW 13 20 30.00 1016 10 16 0.00 0.00
7:15 am 07:15 Mostly Cloudy 69 20.8 54 12.1 58 58 SSW 12 19 30.00 1016 10 16 0.00 0.00
7:35 am 07:35 Cloudy 69 20.8 53 11.6 56 56 SSW 13 20 30.00 1016 10 16 0.00 0.00
7:55 am 07:55 Cloudy 69 20.8 53 11.7 56 56 SSW 14 22 30.03 1017 10 16 0.00 0.00
8:15 am 08:15 Partly Cloudy 69 20.8 54 12.2 58 58 SSW 14 22 30.00 1016 10 16 0.00 0.00
8:35 am 08:35 Partly Cloudy 69 20.8 55 12.5 59 59 SSW 15 24 30.00 1016 10 16 0.00 0.00
8:55 am 08:55 Sunny 69 20.8 55 12.7 60 60 SSW 17 28 30.00 1016 10 16 0.00 0.00
9:15 am 09:15 Partly Cloudy 69 20.8 55 12.6 60 60 SSW 14 22 30.00 1016 10 16 0.00 0.00
9:35 am 09:35 Sunny 72 22.1 56 13.4 58 58 SSW 23 37 30.00 1016 10 16 0.00 0.00
9:55 am 09:55 Sunny 74 23.2 58 14.2 57 57 SW 14 22 30.00 1016 10 16 0.00 0.00
10:15 am 10:15 Partly Cloudy 74 23.4 58 14.4 57 57 SSW 14 22 30.00 1016 10 16 0.00 0.00
10:35 am 10:35 Mostly Cloudy 74 23.5 58 14.4 57 57 SW 14 22 30.00 1016 10 16 0.00 0.00
10:55 am 10:55 Cloudy 74 23.6 58 14.3 56 56 SW 16 26 30.03 1017 10 16 0.00 0.00
11:15 am 11:15 Cloudy 74 23.6 57 14 55 55 SW 13 20 30.03 1017 10 16 0.00 0.00
11:35 am 11:35 Cloudy with Light Rain 69 20.8 58 14.5 67 67 SW 16 26 30.03 1017 10 16 0.00 0.00
11:55 am 11:55 Partly Cloudy 73 22.9 60 15.6 64 64 SW 14 22 30.03 1017 10 16 0.00 0.00
12:15 pm 12:15 Sunny 74 23.6 58 14.5 57 57 SW 16 26 30.00 1016 10 16 0.00 0.00
12:35 pm 12:35 Partly Cloudy 77 25.1 56 13.4 48 48 SW 22 35 30.00 1016 10 16 0.00 0.00
12:55 pm 12:55 Sunny 77 25.1 55 12.5 46 46 SSW 17 28 30.00 1016 10 16 0.00 0.00
1:15 pm 13:15 Sunny 80 26.4 53 11.8 40 40 SW 18 30 30.00 1016 10 16 0.00 0.00
1:35 pm 13:35 Sunny 80 26.5 49 9.5 34 34 SW 14 22 29.97 1015 10 16 0.00 0.00
1:55 pm 13:55 Mostly Cloudy 77 25.1 49 9.2 37 37 WSW 15 24 29.97 1015 10 16 0.00 0.00
2:15 pm 14:15 Partly Cloudy 77 25.1 49 9.4 37 37 SW 13 20 29.97 1015 10 16 0.00 0.00
2:35 pm 14:35 Sunny 80 26.5 48 8.9 33 33 SW 16 26 29.97 1015 10 16 0.00 0.00
2:55 pm 14:55 Partly Cloudy 77 25.1 47 8.4 35 35 W 14 22 29.97 1015 10 16 0.00 0.00
3:15 pm 15:15 Partly Cloudy 78 25.3 45 7.4 32 32 W 18 30 29.97 1015 10 16 0.00 0.00
3:35 pm 15:35 Sunny 80 26.5 48 8.7 33 33 W 18 30 29.97 1015 10 16 0.00 0.00
3:55 pm 15:55 Sunny 80 26.5 48 8.8 33 33 W 16 26 29.97 1015 10 16 0.00 0.00
4:15 pm 16:15 Sunny 80 26.5 46 7.7 30 30 WSW 16 26 29.97 1015 10 16 0.00 0.00
4:35 pm 16:35 Sunny 80 26.5 46 7.9 31 31 W 12 19 29.97 1015 10 16 0.00 0.00
4:55 pm 16:55 Sunny 80 26.5 47 8.1 31 31 WSW 15 24 29.97 1015 10 16 0.00 0.00
5:15 pm 17:15 Sunny 80 26.5 49 9.5 34 34 WSW 9 15 29.97 1015 10 16 0.00 0.00
5:35 pm 17:35 Sunny 80 26.5 48 8.8 33 33 WSW 12 19 29.97 1015 10 16 0.00 0.00
5:55 pm 17:55 Mostly Cloudy 79 26.3 47 8.5 32 32 W 12 19 29.94 1014 10 16 0.00 0.00
6:15 pm 18:15 Mostly Cloudy 80 26.4 46 7.5 30 30 W 9 15 29.94 1014 10 16 0.00 0.00
6:35 pm 18:35 Partly Cloudy 78 25.3 46 8 33 33 NW 14 22 29.94 1014 10 16 0.00 0.00
6:55 pm 18:55 Partly Cloudy 74 23.6 48 9 40 40 NW 16 26 29.97 1015 10 16 0.00 0.00
7:15 pm 19:15 Mostly Cloudy 74 23.6 49 9.6 41 41 WNW 13 20 29.97 1015 10 16 0.00 0.00
7:35 pm 19:35 Cloudy 74 23.6 52 10.9 45 45 W 8 13 30.00 1016 10 16 0.00 0.00
7:55 pm 19:55 Cloudy with Rain 70 20.9 53 11.4 55 55 WSW 7 11 30.03 1017 10 16 0.00 0.00
8:15 pm 20:15 Cloudy with Rain 67 19.7 57 13.9 69 69 SSW 10 17 30.03 1017 7 11 0.00 0.00
8:35 pm 20:35 Cloudy with Rain 65 18.4 58 14.7 79 79 SSW 10 17 30.03 1017 10 16 0.00 0.00
8:55 pm 20:55 Cloudy 64 18 58 14.6 81 81 SSW 9 15 30.03 1017 10 16 0.00 0.00
9:15 pm 21:15 Cloudy 64 18 58 14.6 81 81 SSW 7 11 30.03 1017 10 16 0.00 0.00
9:35 pm 21:35 Cloudy 64 18 58 14.6 81 81 SSW 8 13 30.06 1018 10 16 0.00 0.00
9:55 pm 21:55 Cloudy with Light Rain 64 18 58 14.7 81 81 SSW 8 13 30.06 1018 10 16 0.00 0.00
10:15 pm 22:15 Cloudy with Rain 64 18 59 14.8 82 82 SSW 14 22 30.06 1018 10 16 0.00 0.00
10:35 pm 22:35 Cloudy with Drizzle 64 18 59 14.8 82 82 SW 9 15 30.06 1018 10 16 0.00 0.00
10:55 pm 22:55 Cloudy 63 17.3 57 14.1 82 82 SW 7 11 30.06 1018 10 16 0.00 0.00
11:15 pm 23:15 Cloudy 63 17 56 13.6 81 81 SSW 3 6 30.06 1018 10 16 0.00 0.00
11:35 pm 23:35 Cloudy 62 16.8 56 13.5 81 81 SSW 3 6 30.06 1018 10 16 0.00 0.00
11:55 pm 23:55 Cloudy 62 16.9 56 13.3 79 79 SSW 5 7 30.03 1017 10 16 0.00 0.00

Powered by AerisWeather